Year,Month,Day,Hour,Minute,Value (Times are PST for temperature in C)
2008,08,18,00,00,21.90
2008,08,18,00,01,21.90
2008,08,18,00,02,21.90
2008,08,18,00,03,21.90
2008,08,18,00,04,21.90
2008,08,18,00,05,21.90
2008,08,18,00,06,21.80
2008,08,18,00,07,21.80
2008,08,18,00,08,21.80
2008,08,18,00,09,21.80
2008,08,18,00,10,21.80
2008,08,18,00,11,21.80
2008,08,18,00,12,21.80
2008,08,18,00,13,21.70
2008,08,18,01,02,21.10
2008,08,18,01,03,21.10
2008,08,18,01,04,21.10
2008,08,18,01,05,21.10
2008,08,18,01,06,21.10
2008,08,18,01,07,21.10
2008,08,18,01,08,21.10
2008,08,18,01,09,21.10
2008,08,18,01,10,21.10
2008,08,18,01,11,21.10
2008,08,18,01,12,21.10
2008,08,18,01,13,21.10
2008,08,18,01,14,21.00
2008,08,18,01,15,21.00
2008,08,18,01,16,21.00
2008,08,18,01,17,21.00
2008,08,18,01,18,21.00
2008,08,18,01,19,21.00
2008,08,18,01,20,21.00
2008,08,18,01,21,21.00
2008,08,18,01,22,20.90
2008,08,18,01,23,20.90
2008,08,18,01,24,20.90
2008,08,18,01,25,20.90
2008,08,18,01,26,20.80
2008,08,18,01,27,20.80
2008,08,18,01,28,20.80
2008,08,18,01,29,20.80
2008,08,18,01,30,20.70
2008,08,18,01,31,20.70
2008,08,18,01,32,20.70
2008,08,18,01,33,20.70
2008,08,18,01,34,20.60
2008,08,18,01,35,20.60
2008,08,18,01,36,20.60
2008,08,18,01,37,20.60
2008,08,18,01,38,20.60
2008,08,18,01,39,20.60
2008,08,18,01,40,20.60
2008,08,18,01,41,20.60
2008,08,18,01,42,20.60
2008,08,18,01,43,20.60
2008,08,18,01,44,20.50
2008,08,18,01,45,20.50
2008,08,18,01,46,20.50
2008,08,18,01,47,20.50
2008,08,18,01,48,20.50
2008,08,18,01,49,20.50
2008,08,18,01,50,20.50
2008,08,18,01,51,20.50
2008,08,18,01,52,20.50
2008,08,18,01,53,20.50
2008,08,18,01,54,20.50
2008,08,18,01,55,20.50
2008,08,18,01,56,20.40
2008,08,18,01,57,20.40
2008,08,18,01,58,20.40
2008,08,18,01,59,20.40
2008,08,18,02,00,20.40
2008,08,18,02,01,20.30
2008,08,18,02,02,20.30
2008,08,18,02,03,20.30
2008,08,18,02,04,20.30
2008,08,18,02,05,20.30
2008,08,18,02,06,20.30
2008,08,18,02,07,20.20
2008,08,18,02,08,20.20
2008,08,18,02,09,20.20
2008,08,18,02,10,20.20
2008,08,18,02,11,20.20
2008,08,18,02,12,20.20
2008,08,18,02,13,20.20
2008,08,18,02,14,20.20
2008,08,18,02,15,20.20
2008,08,18,02,16,20.20
2008,08,18,02,17,20.20
2008,08,18,02,18,20.20
2008,08,18,02,19,20.20
2008,08,18,02,20,20.20
2008,08,18,02,21,20.20
2008,08,18,02,22,20.20
2008,08,18,02,23,20.20
2008,08,18,02,24,20.20
2008,08,18,02,25,20.20
2008,08,18,02,26,20.20
2008,08,18,02,27,20.20
2008,08,18,02,28,20.20
2008,08,18,02,29,20.20
2008,08,18,02,30,20.20
2008,08,18,02,31,20.20
2008,08,18,02,32,20.20
2008,08,18,02,33,20.20
2008,08,18,02,34,20.20
2008,08,18,02,35,20.20
2008,08,18,02,36,20.20
2008,08,18,02,37,20.20
2008,08,18,02,38,20.10
2008,08,18,02,39,20.10
2008,08,18,02,40,20.10
2008,08,18,02,41,20.10
2008,08,18,02,42,20.10
2008,08,18,02,43,20.10
2008,08,18,02,44,20.10
2008,08,18,02,45,20.10
2008,08,18,02,46,20.10
2008,08,18,02,47,20.10
2008,08,18,02,48,20.10
2008,08,18,02,49,20.10
2008,08,18,02,50,20.10
2008,08,18,02,51,20.10
2008,08,18,02,52,20.10
2008,08,18,02,53,20.10
2008,08,18,02,54,20.10
2008,08,18,02,55,20.10
2008,08,18,02,56,20.10
2008,08,18,02,57,20.20
2008,08,18,02,58,20.20
2008,08,18,02,59,20.20
2008,08,18,03,00,20.20
2008,08,18,03,01,20.20
2008,08,18,03,02,20.20
2008,08,18,03,03,20.20
2008,08,18,03,04,20.20
2008,08,18,03,05,20.20
2008,08,18,03,06,20.20
2008,08,18,03,07,20.20
2008,08,18,03,08,20.20
2008,08,18,03,09,20.20
2008,08,18,03,10,20.20
2008,08,18,03,11,20.20
2008,08,18,03,12,20.20
2008,08,18,03,13,20.20
2008,08,18,03,14,20.20
2008,08,18,03,15,20.20
2008,08,18,03,16,20.20
2008,08,18,03,17,20.20
2008,08,18,03,18,20.20
2008,08,18,03,19,20.30
2008,08,18,03,20,20.30
2008,08,18,03,21,20.30
2008,08,18,03,22,20.30
2008,08,18,03,23,20.30
2008,08,18,03,24,20.40
2008,08,18,03,25,20.40
2008,08,18,03,26,20.40
2008,08,18,03,27,20.40
2008,08,18,03,28,20.40
2008,08,18,03,29,20.40
2008,08,18,03,30,20.40
2008,08,18,03,31,20.40
2008,08,18,03,32,20.40
2008,08,18,03,33,20.40
2008,08,18,03,34,20.30
2008,08,18,03,35,20.30
2008,08,18,03,36,20.30
2008,08,18,03,37,20.30
2008,08,18,03,38,20.30
2008,08,18,03,39,20.30
2008,08,18,03,40,20.30
2008,08,18,03,41,20.30
2008,08,18,03,42,20.20
2008,08,18,03,43,20.20
2008,08,18,03,44,20.20
2008,08,18,03,45,20.20
2008,08,18,03,46,20.20
2008,08,18,03,47,20.20
2008,08,18,03,48,20.20
2008,08,18,03,49,20.20
2008,08,18,03,50,20.20
2008,08,18,03,51,20.20
2008,08,18,03,52,20.20
2008,08,18,03,53,20.20
2008,08,18,03,54,20.20
2008,08,18,03,55,20.20
2008,08,18,03,56,20.10
2008,08,18,03,57,20.10
2008,08,18,03,58,20.10
2008,08,18,03,59,20.10
2008,08,18,04,00,20.10
2008,08,18,04,01,20.10
2008,08,18,04,02,20.10
2008,08,18,04,03,20.10
2008,08,18,04,04,20.10
2008,08,18,04,05,20.10
2008,08,18,04,06,20.10
2008,08,18,04,07,20.10
2008,08,18,04,08,20.00
2008,08,18,04,09,19.90
2008,08,18,04,10,19.90
2008,08,18,04,11,19.90
2008,08,18,04,12,19.90
2008,08,18,04,13,19.90
2008,08,18,04,14,19.90
2008,08,18,04,15,19.90
2008,08,18,04,16,19.90
2008,08,18,04,17,19.90
2008,08,18,04,18,19.90
2008,08,18,04,19,19.90
2008,08,18,04,20,19.90
2008,08,18,04,21,19.90
2008,08,18,04,22,19.90
2008,08,18,04,23,19.90
2008,08,18,04,24,19.90
2008,08,18,04,25,19.90
2008,08,18,04,26,19.90
2008,08,18,04,27,19.90
2008,08,18,04,28,19.90
2008,08,18,04,29,19.90
2008,08,18,04,30,19.90
2008,08,18,04,31,19.90
2008,08,18,04,32,19.80
2008,08,18,04,33,19.80
2008,08,18,04,34,19.80
2008,08,18,04,35,19.80
2008,08,18,04,36,19.80
2008,08,18,04,37,19.80
2008,08,18,04,38,19.80
2008,08,18,04,39,19.80
2008,08,18,04,40,19.80
2008,08,18,04,41,19.80
2008,08,18,04,42,19.80
2008,08,18,04,43,19.80
2008,08,18,04,44,19.80
2008,08,18,04,45,19.80
2008,08,18,04,46,19.80
2008,08,18,04,47,19.80
2008,08,18,04,48,19.80
2008,08,18,04,49,19.80
2008,08,18,04,50,19.80
2008,08,18,04,51,19.80
2008,08,18,04,52,19.80
2008,08,18,04,53,19.80
2008,08,18,04,54,19.80
2008,08,18,04,55,19.80
2008,08,18,04,56,19.80
2008,08,18,04,57,19.80
2008,08,18,04,58,19.80
2008,08,18,04,59,19.80
2008,08,18,05,00,19.80
2008,08,18,05,01,19.80
2008,08,18,05,02,19.80
2008,08,18,05,03,19.70
2008,08,18,05,04,19.70
2008,08,18,05,05,19.70
2008,08,18,05,06,19.70
2008,08,18,05,07,19.70
2008,08,18,05,08,19.70
2008,08,18,05,09,19.70
2008,08,18,05,10,19.70
2008,08,18,05,11,19.70
2008,08,18,05,12,19.70
2008,08,18,05,13,19.70
2008,08,18,05,14,19.60
2008,08,18,05,15,19.60
2008,08,18,05,16,19.70
2008,08,18,05,17,19.70
2008,08,18,05,18,19.70
2008,08,18,05,19,19.70
2008,08,18,05,20,19.70
2008,08,18,05,21,19.70
2008,08,18,05,22,19.70
2008,08,18,05,23,19.70
2008,08,18,05,24,19.70
2008,08,18,05,25,19.70
2008,08,18,05,26,19.70
2008,08,18,05,27,19.70
2008,08,18,05,28,19.70
2008,08,18,05,29,19.70
2008,08,18,05,30,19.70
2008,08,18,05,31,19.70
2008,08,18,05,32,19.70
2008,08,18,05,33,19.70
2008,08,18,05,34,19.70
2008,08,18,05,35,19.70
2008,08,18,05,36,19.70
2008,08,18,05,37,19.70
2008,08,18,05,38,19.70
2008,08,18,05,39,19.70
2008,08,18,05,40,19.70
2008,08,18,05,41,19.70
2008,08,18,05,42,19.70
2008,08,18,05,43,19.70
2008,08,18,05,44,19.60
2008,08,18,05,45,19.60
2008,08,18,05,46,19.60
2008,08,18,05,47,19.60
2008,08,18,05,48,19.60
2008,08,18,05,49,19.60
2008,08,18,05,50,19.60
2008,08,18,05,51,19.60
2008,08,18,05,52,19.60
2008,08,18,05,53,19.60
2008,08,18,05,54,19.60
2008,08,18,05,55,19.60
2008,08,18,05,56,19.60
2008,08,18,05,57,19.60
2008,08,18,05,58,19.60
2008,08,18,05,59,19.60
2008,08,18,06,00,19.60
2008,08,18,06,01,19.60
2008,08,18,06,02,19.60
2008,08,18,06,03,19.60
2008,08,18,06,04,19.50
2008,08,18,06,05,19.50
2008,08,18,06,06,19.50
2008,08,18,06,07,19.50
2008,08,18,06,08,19.50
2008,08,18,06,09,19.50
2008,08,18,06,10,19.50
2008,08,18,06,11,19.50
2008,08,18,06,12,19.50
2008,08,18,06,13,19.50
2008,08,18,06,14,19.50
2008,08,18,06,15,19.50
2008,08,18,06,16,19.50
2008,08,18,06,17,19.50
2008,08,18,06,18,19.50
2008,08,18,06,19,19.50
2008,08,18,06,20,19.50
2008,08,18,06,21,19.50
2008,08,18,06,22,19.40
2008,08,18,06,23,19.40
2008,08,18,06,24,19.40
2008,08,18,06,25,19.40
2008,08,18,06,26,19.40
2008,08,18,06,27,19.40
2008,08,18,06,28,19.40
2008,08,18,06,29,19.40
2008,08,18,06,30,19.40
2008,08,18,06,31,19.40
2008,08,18,06,32,19.40
2008,08,18,06,33,19.40
2008,08,18,06,34,19.30
2008,08,18,06,35,19.30
2008,08,18,06,36,19.30
2008,08,18,06,37,19.30
2008,08,18,06,38,19.30
2008,08,18,06,39,19.30
2008,08,18,06,40,19.30
2008,08,18,06,41,19.30
2008,08,18,06,42,19.30
2008,08,18,06,43,19.30
2008,08,18,06,44,19.20
2008,08,18,06,45,19.20
2008,08,18,06,46,19.20
2008,08,18,06,47,19.20
2008,08,18,06,48,19.20
2008,08,18,06,49,19.20
2008,08,18,06,50,19.20
2008,08,18,06,51,19.20
2008,08,18,06,52,19.20
2008,08,18,06,53,19.20
2008,08,18,06,54,19.20
2008,08,18,06,55,19.10
2008,08,18,06,56,19.10
2008,08,18,06,57,19.10
2008,08,18,06,58,19.10
2008,08,18,06,59,19.10
2008,08,18,07,00,19.10
2008,08,18,07,01,19.10
2008,08,18,07,02,19.10
2008,08,18,07,03,19.10
2008,08,18,07,04,19.10
2008,08,18,07,05,19.00
2008,08,18,07,06,18.90
2008,08,18,07,07,18.90
2008,08,18,07,08,18.90
2008,08,18,07,09,18.90
2008,08,18,07,10,18.90
2008,08,18,07,11,18.90
2008,08,18,07,12,18.90
2008,08,18,07,13,18.90
2008,08,18,07,14,18.90
2008,08,18,07,15,18.90
2008,08,18,07,16,18.90
2008,08,18,07,17,18.90
2008,08,18,07,18,18.90
2008,08,18,07,19,18.90
2008,08,18,07,20,18.90
2008,08,18,07,21,18.80
2008,08,18,07,22,18.80
2008,08,18,07,23,18.80
2008,08,18,07,24,18.80
2008,08,18,07,25,18.80
2008,08,18,07,26,18.80
2008,08,18,07,27,18.80
2008,08,18,07,28,18.80
2008,08,18,07,29,18.80
2008,08,18,07,30,18.80
2008,08,18,07,31,18.80
2008,08,18,07,32,18.80
2008,08,18,07,33,18.80
2008,08,18,07,34,18.80
2008,08,18,07,35,18.80
2008,08,18,07,36,18.80
2008,08,18,07,37,18.80
2008,08,18,07,38,18.80
2008,08,18,07,39,18.80
2008,08,18,07,40,18.80
2008,08,18,07,41,18.80
2008,08,18,07,42,18.80
2008,08,18,07,43,18.80
2008,08,18,07,44,18.80
2008,08,18,07,45,18.80
2008,08,18,07,46,18.80
2008,08,18,07,47,18.80
2008,08,18,07,48,18.80
2008,08,18,07,49,18.80
2008,08,18,07,50,18.80
2008,08,18,07,51,18.80
2008,08,18,07,52,18.80
2008,08,18,07,53,18.80
2008,08,18,07,54,18.80
2008,08,18,07,55,18.80
2008,08,18,07,56,18.80
2008,08,18,07,57,18.80
2008,08,18,07,58,18.80
2008,08,18,07,59,18.80
2008,08,18,08,00,18.80
2008,08,18,08,01,18.80
2008,08,18,08,02,18.80
2008,08,18,08,03,18.80
2008,08,18,08,04,18.80
2008,08,18,08,05,18.80
2008,08,18,08,06,18.80
2008,08,18,08,07,18.80
2008,08,18,08,08,18.80
2008,08,18,08,09,18.80
2008,08,18,08,10,18.80
2008,08,18,08,11,18.80
2008,08,18,08,12,18.80
2008,08,18,08,13,18.80
2008,08,18,08,14,18.80
2008,08,18,08,15,18.80
2008,08,18,08,16,18.80
2008,08,18,08,17,18.80
2008,08,18,08,18,18.80
2008,08,18,08,19,18.90
2008,08,18,08,20,18.90
2008,08,18,08,21,18.90
2008,08,18,08,22,18.90
2008,08,18,08,23,18.90
2008,08,18,08,24,18.90
2008,08,18,08,25,18.90
2008,08,18,08,26,18.90
2008,08,18,08,27,18.90
2008,08,18,08,28,18.90
2008,08,18,08,29,18.90
2008,08,18,08,30,19.00
2008,08,18,08,31,19.10
2008,08,18,08,32,19.10
2008,08,18,08,33,19.10
2008,08,18,08,34,19.10
2008,08,18,08,35,19.10
2008,08,18,08,36,19.10
2008,08,18,08,37,19.10
2008,08,18,08,38,19.10
2008,08,18,08,39,19.10
2008,08,18,08,40,19.20
2008,08,18,08,41,19.20
2008,08,18,08,42,19.20
2008,08,18,08,43,19.20
2008,08,18,08,44,19.30
2008,08,18,08,45,19.30
2008,08,18,08,46,19.30
2008,08,18,08,47,19.30
2008,08,18,08,48,19.40
2008,08,18,08,49,19.40
2008,08,18,08,50,19.40
2008,08,18,08,51,19.40
2008,08,18,08,52,19.50
2008,08,18,08,53,19.50
2008,08,18,08,54,19.50
2008,08,18,08,55,19.60
2008,08,18,08,56,19.60
2008,08,18,08,57,19.60
2008,08,18,08,58,19.70
2008,08,18,08,59,19.70
2008,08,18,09,00,19.70
2008,08,18,09,01,19.70
2008,08,18,09,02,19.70
2008,08,18,09,03,19.80
2008,08,18,09,04,19.80
2008,08,18,09,05,19.80
2008,08,18,09,06,19.80
2008,08,18,09,07,19.80
2008,08,18,09,08,19.80
2008,08,18,09,09,19.80
2008,08,18,09,10,19.80
2008,08,18,09,11,19.80
2008,08,18,09,12,19.90
2008,08,18,09,13,19.90
2008,08,18,09,14,19.90
2008,08,18,09,15,19.90
2008,08,18,09,16,19.90
2008,08,18,09,17,20.00
2008,08,18,09,18,20.10
2008,08,18,09,19,20.10
2008,08,18,09,20,20.20
2008,08,18,09,21,20.20
2008,08,18,09,22,20.20
2008,08,18,09,23,20.30
2008,08,18,09,24,20.30
2008,08,18,09,25,20.30
2008,08,18,09,26,20.30
2008,08,18,09,27,20.40
2008,08,18,09,28,20.40
2008,08,18,09,29,20.40
2008,08,18,09,30,20.50
2008,08,18,09,31,20.60
2008,08,18,09,32,20.60
2008,08,18,09,33,20.60
2008,08,18,09,34,20.70
2008,08,18,09,35,20.70
2008,08,18,09,36,20.70
2008,08,18,09,37,20.80
2008,08,18,09,38,20.80
2008,08,18,09,39,20.70
2008,08,18,09,40,20.70
2008,08,18,09,41,20.60
2008,08,18,09,42,20.50
2008,08,18,09,43,20.30
2008,08,18,09,44,20.20
2008,08,18,09,45,20.20
2008,08,18,09,46,20.10
2008,08,18,09,47,20.10
2008,08,18,09,48,20.10
2008,08,18,09,49,19.90
2008,08,18,09,50,19.90
2008,08,18,09,51,19.90
2008,08,18,09,52,19.90
2008,08,18,09,53,19.80
2008,08,18,09,54,19.80
2008,08,18,09,55,19.80
2008,08,18,09,56,19.80
2008,08,18,09,57,19.70
2008,08,18,09,58,19.70
2008,08,18,09,59,19.70
2008,08,18,10,00,19.70
2008,08,18,10,01,19.60
2008,08,18,10,02,19.60
2008,08,18,10,03,19.60
2008,08,18,10,04,19.60
2008,08,18,10,05,19.60
2008,08,18,10,06,19.60
2008,08,18,10,07,19.60
2008,08,18,10,08,19.60
2008,08,18,10,09,19.60
2008,08,18,10,10,19.60
2008,08,18,10,11,19.70
2008,08,18,10,12,19.70
2008,08,18,10,13,19.70
2008,08,18,10,14,19.70
2008,08,18,10,15,19.80
2008,08,18,10,16,19.80
2008,08,18,10,17,19.80
2008,08,18,10,18,19.90
2008,08,18,10,19,19.90
2008,08,18,10,20,19.90
2008,08,18,10,21,19.90
2008,08,18,10,22,20.00
2008,08,18,10,23,20.10
2008,08,18,10,24,20.10
2008,08,18,10,25,20.20
2008,08,18,10,26,20.20
2008,08,18,10,27,20.20
2008,08,18,10,28,20.20
2008,08,18,10,29,20.20
2008,08,18,10,30,20.20
2008,08,18,10,31,20.30
2008,08,18,10,32,20.30
2008,08,18,10,33,20.40
2008,08,18,10,34,20.40
2008,08,18,10,35,20.40
2008,08,18,10,36,20.40
2008,08,18,10,37,20.40
2008,08,18,10,38,20.40
2008,08,18,10,39,20.40
2008,08,18,10,40,20.30
2008,08,18,10,41,20.30
2008,08,18,10,42,20.30
2008,08,18,10,43,20.30
2008,08,18,10,44,20.30
2008,08,18,10,45,20.30
2008,08,18,10,46,20.30
2008,08,18,10,47,20.30
2008,08,18,10,48,20.30
2008,08,18,10,49,20.40
2008,08,18,10,50,20.40
2008,08,18,10,51,20.50
2008,08,18,10,52,20.50
2008,08,18,10,53,20.50
2008,08,18,10,54,20.60
2008,08,18,10,55,20.70
2008,08,18,10,56,20.70
2008,08,18,10,57,20.80
2008,08,18,10,58,20.80
2008,08,18,10,59,20.80
2008,08,18,11,00,20.90
2008,08,18,11,01,20.90
2008,08,18,11,02,20.90
2008,08,18,11,03,20.80
2008,08,18,11,04,20.80
2008,08,18,11,05,20.80
2008,08,18,11,06,20.70
2008,08,18,11,07,20.70
2008,08,18,11,08,20.70
2008,08,18,11,09,20.70
2008,08,18,11,10,20.70
2008,08,18,11,11,20.70
2008,08,18,11,12,20.60
2008,08,18,11,13,20.60
2008,08,18,11,14,20.50
2008,08,18,11,15,20.50
2008,08,18,11,16,20.50
2008,08,18,11,17,20.50
2008,08,18,11,18,20.50
2008,08,18,11,19,20.50
2008,08,18,11,20,20.50
2008,08,18,11,21,20.60
2008,08,18,11,22,20.60
2008,08,18,11,23,20.70
2008,08,18,11,24,20.80
2008,08,18,11,25,20.80
2008,08,18,11,26,20.90
2008,08,18,11,27,21.00
2008,08,18,11,28,21.00
2008,08,18,11,29,21.10
2008,08,18,11,30,21.00
2008,08,18,11,31,21.00
2008,08,18,11,32,21.00
2008,08,18,11,33,21.00
2008,08,18,11,34,21.00
2008,08,18,11,35,21.00
2008,08,18,11,36,21.10
2008,08,18,11,37,21.10
2008,08,18,11,38,21.10
2008,08,18,11,39,21.10
2008,08,18,11,40,21.10
2008,08,18,11,41,21.10
2008,08,18,11,42,21.00
2008,08,18,11,43,21.00
2008,08,18,11,44,21.00
2008,08,18,11,45,20.90
2008,08,18,11,46,20.90
2008,08,18,11,47,20.90
2008,08,18,11,48,20.90
2008,08,18,11,49,20.80
2008,08,18,11,50,20.80
2008,08,18,11,51,20.80
2008,08,18,11,52,20.70
2008,08,18,11,53,20.70
2008,08,18,11,54,20.60
2008,08,18,11,55,20.70
2008,08,18,11,56,20.70
2008,08,18,11,57,20.80
2008,08,18,11,58,20.90
2008,08,18,11,59,21.00
2008,08,18,12,00,21.00
2008,08,18,12,01,21.20
2008,08,18,12,02,21.30
2008,08,18,12,03,21.30
2008,08,18,12,04,21.40
2008,08,18,12,05,21.60
2008,08,18,12,06,21.60
2008,08,18,12,07,21.60
2008,08,18,12,08,21.60
2008,08,18,12,09,21.60
2008,08,18,12,10,21.60
2008,08,18,12,11,21.70
2008,08,18,12,12,21.70
2008,08,18,12,13,21.70
2008,08,18,12,14,21.60
2008,08,18,12,15,21.60
2008,08,18,12,16,21.60
2008,08,18,12,17,21.60
2008,08,18,12,18,21.60
2008,08,18,12,19,21.50
2008,08,18,12,20,21.40
2008,08,18,12,21,21.40
2008,08,18,12,22,21.30
2008,08,18,12,23,21.20
2008,08,18,12,24,21.20
2008,08,18,12,25,21.20
2008,08,18,12,26,21.10
2008,08,18,12,27,21.10
2008,08,18,12,28,21.10
2008,08,18,12,29,21.10
2008,08,18,12,30,21.10
2008,08,18,12,31,21.20
2008,08,18,12,32,21.20
2008,08,18,12,33,21.20
2008,08,18,12,34,21.20
2008,08,18,12,35,21.20
2008,08,18,12,36,21.20
2008,08,18,12,37,21.20
2008,08,18,12,38,21.10
2008,08,18,12,39,21.10
2008,08,18,12,40,21.10
2008,08,18,12,41,21.00
2008,08,18,12,42,20.90
2008,08,18,12,43,20.90
2008,08,18,12,44,20.80
2008,08,18,12,45,20.80
2008,08,18,12,46,20.80
2008,08,18,12,47,20.80
2008,08,18,12,48,20.80
2008,08,18,12,49,20.80
2008,08,18,12,50,20.80
2008,08,18,12,51,20.70
2008,08,18,12,52,20.70
2008,08,18,12,53,20.70
2008,08,18,12,54,20.70
2008,08,18,12,55,20.80
2008,08,18,12,56,20.80
2008,08,18,12,57,20.80
2008,08,18,12,58,20.80
2008,08,18,12,59,20.70
2008,08,18,13,00,20.70
2008,08,18,13,01,20.70
2008,08,18,13,02,20.60
2008,08,18,13,03,20.60
2008,08,18,13,04,20.60
2008,08,18,13,05,20.70
2008,08,18,13,06,20.70
2008,08,18,13,07,20.70
2008,08,18,13,08,20.70
2008,08,18,13,09,20.70
2008,08,18,13,10,20.70
2008,08,18,13,11,20.70
2008,08,18,13,12,20.80
2008,08,18,13,13,20.70
2008,08,18,13,14,20.70
2008,08,18,13,15,20.80
2008,08,18,13,16,20.70
2008,08,18,13,17,20.70
2008,08,18,13,18,20.70
2008,08,18,13,19,20.60
2008,08,18,13,20,20.60
2008,08,18,13,21,20.60
2008,08,18,13,22,20.50
2008,08,18,13,23,20.50
2008,08,18,13,24,20.50
2008,08,18,13,25,20.50
2008,08,18,13,26,20.50
2008,08,18,13,27,20.50
2008,08,18,13,28,20.60
2008,08,18,13,29,20.60
2008,08,18,13,30,20.60
2008,08,18,13,31,20.50
2008,08,18,13,32,20.50
2008,08,18,13,33,20.50
2008,08,18,13,34,20.50
2008,08,18,13,35,20.50
2008,08,18,13,36,20.50
2008,08,18,13,37,20.50
2008,08,18,13,38,20.50
2008,08,18,13,39,20.50
2008,08,18,13,40,20.60
2008,08,18,13,41,20.60
2008,08,18,13,42,20.60
2008,08,18,13,43,20.60
2008,08,18,13,44,20.60
2008,08,18,13,45,20.60
2008,08,18,13,46,20.60
2008,08,18,13,47,20.50
2008,08,18,13,48,20.50
2008,08,18,13,49,20.50
2008,08,18,13,50,20.40
2008,08,18,13,51,20.40
2008,08,18,13,52,20.40
2008,08,18,13,53,20.40
2008,08,18,13,54,20.40
2008,08,18,13,55,20.50
2008,08,18,13,56,20.50
2008,08,18,13,57,20.50
2008,08,18,13,58,20.50
2008,08,18,13,59,20.60
2008,08,18,14,00,20.60
2008,08,18,14,01,20.60
2008,08,18,14,02,20.60
2008,08,18,14,03,20.60
2008,08,18,14,04,20.60
2008,08,18,14,05,20.60
2008,08,18,14,06,20.60
2008,08,18,14,07,20.50
2008,08,18,14,08,20.50
2008,08,18,14,09,20.50
2008,08,18,14,10,20.50
2008,08,18,14,11,20.50
2008,08,18,14,12,20.60
2008,08,18,14,13,20.60
2008,08,18,14,14,20.60
2008,08,18,14,15,20.60
2008,08,18,14,16,20.60
2008,08,18,14,17,20.70
2008,08,18,14,18,20.70
2008,08,18,14,19,20.70
2008,08,18,14,20,20.70
2008,08,18,14,21,20.80
2008,08,18,14,22,20.80
2008,08,18,14,23,20.90
2008,08,18,14,24,20.90
2008,08,18,14,25,21.00
2008,08,18,14,26,21.00
2008,08,18,14,27,21.00
2008,08,18,14,28,21.00
2008,08,18,14,29,21.00
2008,08,18,14,30,21.00
2008,08,18,14,31,20.90
2008,08,18,14,32,20.80
2008,08,18,14,33,20.70
2008,08,18,14,34,20.70
2008,08,18,14,35,20.70
2008,08,18,14,36,20.70
2008,08,18,14,37,20.60
2008,08,18,14,38,20.60
2008,08,18,14,39,20.60
2008,08,18,14,40,20.60
2008,08,18,14,41,20.60
2008,08,18,14,42,20.60
2008,08,18,14,43,20.70
2008,08,18,14,44,20.60
2008,08,18,14,45,20.60
2008,08,18,14,46,20.70
2008,08,18,14,47,20.70
2008,08,18,14,48,20.80
2008,08,18,14,49,20.80
2008,08,18,14,50,21.00
2008,08,18,14,51,21.00
2008,08,18,14,52,21.10
2008,08,18,14,53,21.20
2008,08,18,14,54,21.30
2008,08,18,14,55,21.40
2008,08,18,14,56,21.60
2008,08,18,14,57,21.70
2008,08,18,14,58,21.70
2008,08,18,14,59,21.80
2008,08,18,15,00,21.80
2008,08,18,15,01,21.90
2008,08,18,15,02,21.90
2008,08,18,15,03,21.90
2008,08,18,15,04,21.90
2008,08,18,15,05,21.90
2008,08,18,15,06,22.00
2008,08,18,15,07,22.00
2008,08,18,15,08,22.00
2008,08,18,15,09,22.00
2008,08,18,15,10,22.00
2008,08,18,15,11,22.00
2008,08,18,15,12,21.90
2008,08,18,15,13,21.90
2008,08,18,15,14,22.00
2008,08,18,15,15,22.00
2008,08,18,15,16,22.00
2008,08,18,15,17,22.00
2008,08,18,15,18,22.00
2008,08,18,15,19,21.90
2008,08,18,15,20,21.80
2008,08,18,15,21,21.70
2008,08,18,15,22,21.60
2008,08,18,15,23,21.50
2008,08,18,15,24,21.40
2008,08,18,15,25,21.30
2008,08,18,15,26,21.20
2008,08,18,15,27,21.10
2008,08,18,15,28,21.10
2008,08,18,15,29,21.10
2008,08,18,15,30,21.10
2008,08,18,15,31,21.00
2008,08,18,15,32,21.00
2008,08,18,15,33,21.00
2008,08,18,15,34,21.00
2008,08,18,15,35,21.00
2008,08,18,15,36,21.00
2008,08,18,15,37,20.90
2008,08,18,15,38,20.90
2008,08,18,15,39,21.00
2008,08,18,15,40,21.00
2008,08,18,15,41,21.00
2008,08,18,15,42,21.00
2008,08,18,15,43,21.00
2008,08,18,15,44,21.10
2008,08,18,15,45,21.20
2008,08,18,15,46,21.30
2008,08,18,15,47,21.30
2008,08,18,15,48,21.40
2008,08,18,15,49,21.40
2008,08,18,15,50,21.40
2008,08,18,15,51,21.40
2008,08,18,15,52,21.50
2008,08,18,15,53,21.60
2008,08,18,15,54,21.60
2008,08,18,15,55,21.70
2008,08,18,15,56,21.80
2008,08,18,15,57,21.90
2008,08,18,15,58,22.00
2008,08,18,15,59,22.00
2008,08,18,16,00,22.00
2008,08,18,16,01,22.00
2008,08,18,16,02,22.10
2008,08,18,16,03,22.20
2008,08,18,16,04,22.20
2008,08,18,16,05,22.30
2008,08,18,16,06,22.30
2008,08,18,16,07,22.40
2008,08,18,16,08,22.50
2008,08,18,16,09,22.60
2008,08,18,16,10,22.80
2008,08,18,16,11,22.90
2008,08,18,16,12,23.00
2008,08,18,16,13,23.10
2008,08,18,16,14,23.10
2008,08,18,16,15,23.10
2008,08,18,16,16,23.00
2008,08,18,16,17,23.00
2008,08,18,16,18,23.10
2008,08,18,16,19,23.10
2008,08,18,16,20,23.00
2008,08,18,16,21,22.90
2008,08,18,16,22,22.90
2008,08,18,16,23,22.90
2008,08,18,16,24,22.90
2008,08,18,16,25,22.90
2008,08,18,16,26,22.90
2008,08,18,16,27,22.90
2008,08,18,16,28,22.90
2008,08,18,16,29,22.90
2008,08,18,16,30,22.90
2008,08,18,16,31,22.90
2008,08,18,16,32,22.90
2008,08,18,16,33,22.90
2008,08,18,16,34,22.90
2008,08,18,16,35,22.90
2008,08,18,16,36,23.10
2008,08,18,16,37,23.10
2008,08,18,16,38,23.10
2008,08,18,16,39,23.10
2008,08,18,16,40,23.10
2008,08,18,16,41,23.20
2008,08,18,16,42,23.20
2008,08,18,16,43,23.30
2008,08,18,16,44,23.30
2008,08,18,16,45,23.50
2008,08,18,16,46,23.60
2008,08,18,16,47,23.70
2008,08,18,16,48,23.70
2008,08,18,16,49,23.70
2008,08,18,16,50,23.70
2008,08,18,16,51,23.70
2008,08,18,16,52,23.80
2008,08,18,16,53,23.80
2008,08,18,16,54,23.70
2008,08,18,16,55,23.70
2008,08,18,16,56,23.70
2008,08,18,16,57,23.70
2008,08,18,16,58,23.70
2008,08,18,16,59,23.70
2008,08,18,17,00,23.70
2008,08,18,17,01,23.80
2008,08,18,17,02,23.70
2008,08,18,17,03,23.80
2008,08,18,17,04,23.80
2008,08,18,17,05,23.80
2008,08,18,17,06,23.90
2008,08,18,17,07,24.00
2008,08,18,17,08,24.10
2008,08,18,17,09,24.10
2008,08,18,17,10,24.10
2008,08,18,17,11,24.10
2008,08,18,17,12,24.10
2008,08,18,17,13,24.10
2008,08,18,17,14,23.90
2008,08,18,17,15,23.80
2008,08,18,17,16,23.50
2008,08,18,17,17,23.10
2008,08,18,17,18,22.90
2008,08,18,17,19,22.70
2008,08,18,17,20,22.50
2008,08,18,17,21,22.50
2008,08,18,17,22,22.40
2008,08,18,17,23,22.40
2008,08,18,17,24,22.50
2008,08,18,17,25,22.50
2008,08,18,17,26,22.50
2008,08,18,17,27,22.50
2008,08,18,17,28,22.50
2008,08,18,17,29,22.40
2008,08,18,17,30,22.40
2008,08,18,17,31,22.30
2008,08,18,17,32,22.30
2008,08,18,17,33,22.20
2008,08,18,17,34,22.20
2008,08,18,17,35,22.20
2008,08,18,17,36,22.10
2008,08,18,17,37,22.10
2008,08,18,17,38,22.00
2008,08,18,17,39,22.00
2008,08,18,17,40,22.00
2008,08,18,17,41,22.00
2008,08,18,17,42,22.00
2008,08,18,17,43,21.90
2008,08,18,17,44,22.00
2008,08,18,17,45,22.00
2008,08,18,17,46,21.90
2008,08,18,17,47,21.90
2008,08,18,17,48,22.00
2008,08,18,17,49,22.00
2008,08,18,17,50,22.00
2008,08,18,17,51,22.10
2008,08,18,17,52,22.20
2008,08,18,17,53,22.30
2008,08,18,17,54,22.50
2008,08,18,17,55,22.60
2008,08,18,17,56,22.70
2008,08,18,17,57,22.80
2008,08,18,17,58,22.70
2008,08,18,17,59,22.70
2008,08,18,18,00,22.70
2008,08,18,18,01,22.70
2008,08,18,18,02,22.70
2008,08,18,18,03,22.70
2008,08,18,18,04,22.60
2008,08,18,18,05,22.60
2008,08,18,18,06,22.60
2008,08,18,18,07,22.60